#timestamp,LO_Frequency,Hit,StdDev 
1531263615.6,286047001.8,N
1531263635.4,286047003.1,N
1531263655.3,286047003.2,N
1531263675.1,286047003.7,N
1531263695.8,286047004.4,N
1531263715.7,286047004.2,N
1531263735.5,286047003.8,N
1531263755.4,286047001.7,N
1531263775.2,286047001.9,N
1531263795.0,286047001.9,N
1531263795.9,286047001.9,N
1531263815.8,286047004.0,N
1531263835.6,286047003.7,N
1531263855.4,286047002.2,N
1531263875.3,286047003.5,N
1531263895.1,286047003.2,N
1531263915.9,286047003.0,N
1531263935.7,286047003.0,N
1531263955.5,286047005.1,Y
1531263975.4,286047004.1,P
1531263995.2,286047003.2,P
1531264015.1,286047003.0,P
1531264016.0,286047003.0,Y
1531264035.8,286047003.1,P
1531264055.6,286047003.4,P
1531264075.5,286047004.8,P
1531264095.3,286047004.7,Y
1531264115.1,286047001.3,P
1531264135.9,286047003.4,N
1531264155.7,286047003.2,P
1531264175.6,286047003.1,Y
1531264195.4,286047002.5,P
1531264215.2,286047001.5,P
1531264235.1,286047004.1,P
1531264236.0,286047004.1,Y
1531264255.8,286047000.9,P
1531264275.7,286047000.3,N
1531264295.5,286047000.9,N
1531264315.3,286046999.9,N
1531264335.2,286047002.4,N
1531264355.0,286047002.4,N
1531264355.9,286047002.4,N
1531264375.8,286047011.9,Y
1531264395.6,286046998.7,P
1531264415.4,286046998.6,N
1531264435.3,286047000.8,N
1531264455.1,286047002.7,N
1531264475.8,286047004.0,N
1531264495.7,286047004.4,N
1531264515.5,286047003.7,N
1531264535.4,286047003.2,N
1531264555.2,286047003.6,N
1531264575.0,286047004.6,N
1531264575.9,286047004.6,N
1531264595.8,286047004.9,N
1531264615.6,286047004.5,N
1531264635.4,286047007.3,Y
1531264655.3,286047004.0,P
1531264675.1,286047002.8,P
1531264695.9,286047002.8,P
1531264715.7,286047002.3,Y
1531264735.5,286046996.5,P
1531264755.4,286046996.9,N
1531264775.2,286046994.9,N
1531264795.1,286046999.6,N
1531264796.0,286046999.6,N
1531264815.8,286046999.3,N
1531264835.6,286046999.4,N
1531264855.5,286046998.5,N
1531264875.3,286046998.6,N
1531264895.1,286046998.2,N
1531264915.9,286046999.9,N
1531264935.7,286047000.4,N
1531264955.6,286047000.4,N
1531264975.4,286046998.1,N
1531264995.2,286046998.6,N
1531265015.1,286047001.0,N
1531265016.0,286047001.0,N
1531265035.8,286047000.4,N
1531265055.6,286047000.6,N
1531265075.5,286047000.3,N
1531265095.3,286047000.1,N
1531265115.2,286047001.8,N
1531265135.9,286047002.5,N
1531265155.7,286047000.5,N
1531265175.6,286047000.4,N
1531265195.4,286046999.7,N
1531265215.2,286047000.0,N
1531265235.1,286046999.9,N
1531265236.0,286046999.9,N
1531265255.8,286047000.3,N
1531265275.7,286047002.2,N
1531265295.5,286047001.3,N
1531265315.3,286047002.5,N
1531265335.2,286047001.3,N
1531265355.0,286047003.9,Y
1531265355.9,286047003.9,P
1531265375.8,286047001.3,N
1531265395.6,286047004.0,N
1531265415.4,286047004.1,N
1531265435.3,286047002.0,N
1531265455.1,286047002.4,N
1531265475.8,286046999.8,N
1531265495.7,286046999.8,N
1531265515.5,286047002.8,N
1531265535.4,286047000.1,N
1531265555.2,286047001.1,N
1531265575.0,286046998.4,N
1531265575.9,286046998.4,N
1531265595.8,286046998.9,N
1531265615.6,286046999.2,N
1531265635.4,286046999.5,N
1531265655.3,286046999.1,N
1531265675.1,286046998.8,N
1531265695.9,286046997.9,N
1531265715.7,286046997.9,N
1531265735.5,286046999.6,N
1531265755.4,286047001.1,N
1531265775.2,286047000.8,N
1531265795.0,286047000.1,N
1531265795.9,286047000.1,N
1531265815.8,286047002.1,N
1531265835.6,286047001.9,N
1531265855.5,286047004.4,N
1531265875.3,286047004.2,N
1531265895.1,286047001.8,N
1531265915.9,286047000.2,N
1531265935.7,286047002.6,N
1531265955.5,286047000.8,N
1531265975.4,286047000.8,N
1531265995.2,286047000.9,N
1531266015.1,286046999.8,N
1531266016.0,286046999.8,N
1531266035.8,286047000.2,N
1531266055.6,286046998.2,N
1531266075.5,286046998.5,N
1531266095.3,286046999.4,N
1531266115.2,286046997.4,N
1531266135.9,286046997.7,N
1531266155.7,286046995.3,N
1531266175.6,286046995.3,N
1531266195.4,286046996.2,N
1531266215.2,286046995.4,N
1531266235.1,286046995.6,N
1531266236.0,286046995.6,N
1531266255.8,286046993.5,N
1531266275.7,286046996.1,N
1531266295.5,286046995.9,N
1531266315.3,286046996.0,N
1531266335.2,286046996.1,N
1531266355.0,286046995.1,N
1531266355.9,286046995.1,N
1531266375.7,286046995.7,N
1531266395.6,286046996.1,N
1531266415.4,286046995.6,N
1531266435.3,286046995.9,N
1531266455.1,286046995.8,N
1531266456.0,286046995.8,N
1531266475.8,286046995.0,N
1531266495.7,286046995.3,N
1531266515.5,286046997.1,N
1531266535.3,286046998.4,N
1531266555.2,286046998.4,N
1531266575.0,286046998.6,N
1531266575.9,286046998.6,N
1531266595.8,286046998.6,N
1531266615.6,286047001.2,N
1531266635.4,286047001.0,N
1531266655.3,286047000.8,N
1531266675.1,286047001.0,N
1531266695.9,286046998.4,N
1531266715.7,286046999.2,N
1531266735.5,286046999.6,N
1531266755.4,286046996.8,N
1531266775.2,286046996.5,N
1531266795.0,286046998.7,N
1531266795.9,286046998.7,N
1531266815.8,286046999.1,N
1531266835.6,286046998.8,N
1531266855.5,286046999.0,N
1531266875.3,286046999.1,N
1531266895.1,286046997.3,N
1531266915.9,286046996.6,N
1531266935.7,286046996.5,N
1531266955.5,286046998.6,N
1531266975.4,286047001.1,N
1531266995.2,286046998.8,N
1531267015.1,286047001.0,N
1531267016.0,286047001.0,N
1531267035.8,286046998.5,N
1531267055.6,286046996.5,N
1531267075.5,286046998.4,N
1531267125.4,286046996.6,E
1531267135.3,286047000.4,N
1531267155.1,286047003.6,P
1531267175.8,286047004.4,N
1531267195.7,286047001.7,N
